Wind_Speed
22 20 20 21 21 19 18 18 19 21 24 27 29 29 30 30 29 28 27 28 29 29 29 28 25 22 21 22 21 19 18 17 17 18 18 19 19 20 19 16 14 14 15 16 17 18 19 20 21 21 21 23 23 20 19 18 16 14 13 14 14 13 12 12 13 14 12 11 11 10 10 10 11 12 13 12 11 9 8 8 7 7 6 6 6
25 23 23 23 23 22 22 22 24 26 29 31 33 34 34 34 35 34 32 31 32 32 32 32 29 25 22 22 22 22 21 19 19 20 21 21 20 21 21 18 15 15 16 17 18 20 21 21 22 21 21 23 23 21 19 19 18 16 14 16 16 15 14 13 14 15 14 13 12 12 11 11 11 12 13 12 10 8 8 8 7 5 5 5 5
28 27 26 26 26 27 27 28 29 30 31 33 34 35 36 37 38 37 35 34 33 34 33 33 31 28 24 23 23 23 23 23 23 22 22 22 22 22 21 19 17 16 16 16 17 20 22 23 23 23 22 22 24 23 21 19 18 17 15 16 18 18 16 15 15 16 16 15 14 13 13 12 12 13 13 11 9 8 9 8 6 5 4 4 3
27 27 26 27 28 29 30 32 33 34 35 36 36 36 36 37 37 38 37 36 35 35 34 33 32 30 27 25 25 26 25 25 25 25 25 24 23 23 23 21 18 17 15 14 15 17 21 22 23 23 22 23 25 25 22 19 18 18 17 16 18 20 19 18 17 17 18 17 16 15 14 14 13 13 12 10 8 8 9 8 6 4 3 3 3
27 27 27 27 28 29 30 31 33 34 36 37 38 38 36 35 35 36 37 38 37 37 36 34 33 32 30 28 27 28 28 28 27 27 28 28 26 25 24 23 21 19 18 17 16 16 19 21 22 22 23 23 25 25 23 20 19 18 18 17 18 21 21 20 19 19 19 19 18 17 15 15 15 14 13 11 9 8 9 8 5 3 2 1 2
29 29 29 29 29 30 30 30 30 31 32 34 36 37 37 36 36 35 35 36 37 38 38 37 35 34 32 30 29 29 30 31 30 29 28 28 29 28 26 26 25 22 19 19 17 17 18 19 19 21 24 23 24 25 23 21 20 18 18 18 17 20 23 22 21 20 20 20 20 19 17 16 16 15 14 12 10 9 9 8 5 3 2 1 2
30 29 29 30 30 30 31 31 31 31 32 32 33 34 34 35 36 36 36 36 36 37 38 38 38 36 34 33 31 31 32 32 33 32 30 28 29 30 29 28 28 26 22 22 20 18 20 17 15 20 25 25 25 26 25 22 21 20 18 18 18 19 23 24 23 22 22 22 21 21 19 18 17 16 15 14 12 10 10 8 6 4 2 1 2
30 29 29 31 30 29 30 31 32 33 33 33 33 34 34 34 35 36 37 37 37 37 38 38 39 39 37 35 33 33 34 34 35 35 34 31 29 29 31 30 31 31 29 27 22 18 20 17 15 20 25 27 27 27 27 24 22 21 20 19 19 19 22 25 25 24 23 23 23 22 21 20 18 17 16 15 14 12 11 10 8 6 4 2 3
29 29 28 29 30 29 30 32 33 33 33 34 34 35 35 35 35 35 36 37 37 37 38 38 39 40 39 38 36 34 33 35 36 37 37 36 33 31 31 32 33 34 34 33 27 23 24 22 20 21 24 27 28 27 27 25 24 24 23 21 19 19 21 24 26 26 25 25 24 24 23 22 20 19 18 17 16 14 12 11 9 7 6 4 3
27 28 27 28 30 31 33 33 33 32 33 35 37 37 36 35 35 35 35 35 36 37 37 37 38 39 40 40 38 36 35 35 36 37 38 39 39 36 33 32 34 36 37 37 35 32 29 26 24 24 25 28 29 28 28 27 26 26 25 22 20 20 20 23 26 27 27 26 25 25 24 23 22 21 19 18 17 16 14 13 11 9 8 6 5
26 26 26 28 31 34 36 37 36 34 34 37 40 41 41 39 38 37 36 35 35 35 37 38 38 38 39 40 40 39 38 36 36 37 38 39 41 42 39 35 34 37 39 39 38 37 34 30 28 28 28 30 31 31 30 29 29 28 26 25 23 21 21 23 25 28 28 28 26 26 26 25 23 22 21 20 18 17 16 15 13 11 10 8 7
24 23 25 29 32 35 39 42 41 37 35 37 41 45 47 46 44 41 39 38 36 34 35 38 39 39 39 40 41 41 40 39 38 38 39 40 41 43 43 40 36 37 40 40 39 38 37 36 34 33 34 33 32 33 32 31 32 31 28 27 26 24 23 23 25 27 29 29 28 27 26 26 25 24 23 21 20 18 17 16 15 13 12 10 9
23 25 29 33 35 37 41 45 44 39 36 36 41 48 50 50 48 46 43 41 38 36 35 36 38 39 40 41 42 42 42 42 41 40 40 41 42 43 45 44 40 38 39 41 40 39 39 39 38 38 37 34 32 33 32 31 35 35 32 31 30 27 24 24 25 26 28 30 30 29 28 27 26 25 24 23 21 20 19 18 17 15 14 13 11
28 31 34 36 36 39 43 46 46 41 38 39 44 49 51 51 51 49 47 44 42 39 36 35 36 38 39 41 42 43 43 43 43 42 41 41 42 44 45 46 44 41 39 40 41 41 40 40 39 39 37 34 32 33 33 35 38 39 37 35 32 28 25 25 26 26 26 29 30 31 30 29 28 27 26 25 23 22 20 20 19 17 16 15 13
35 37 37 35 35 41 46 48 47 44 41 42 45 47 51 54 54 53 51 49 46 43 40 37 37 37 38 39 41 43 44 44 44 44 43 42 43 44 46 47 47 45 42 41 40 41 42 40 39 40 39 35 33 35 37 39 40 39 37 36 33 29 27 27 28 27 26 28 31 32 32 31 30 28 27 27 26 24 22 21 21 19 18 17 15
39 39 39 36 36 43 50 52 50 46 44 44 46 48 52 57 58 57 56 54 52 49 45 40 38 39 39 38 40 43 45 45 46 46 45 43 43 44 46 48 48 47 46 45 42 41 42 41 40 42 42 39 36 36 38 39 40 38 38 37 34 31 31 31 31 29 28 29 30 31 31 32 32 30 29 28 27 26 25 24 22 21 20 19 17
40 40 40 39 39 44 51 54 52 48 46 47 48 51 54 58 59 60 60 60 58 55 51 46 41 40 40 39 39 41 45 46 47 47 47 46 45 45 46 48 50 50 49 48 46 44 43 43 43 44 45 44 41 39 39 40 41 40 41 41 38 34 33 34 33 31 29 29 29 28 29 31 32 31 31 30 29 28 27 26 25 23 22 21 19
40 42 42 42 42 44 50 54 54 51 49 50 52 54 56 57 59 61 63 64 61 59 56 52 46 42 40 40 40 41 43 47 49 49 48 48 48 47 46 47 50 51 51 50 49 48 45 44 45 46 46 46 45 44 43 43 44 43 43 44 42 37 34 36 36 33 30 29 29 27 28 31 32 32 32 31 30 29 29 28 27 26 24 23 22
41 43 45 44 43 45 49 53 54 53 52 52 53 55 56 57 60 62 64 65 63 60 60 58 52 46 42 40 40 41 43 45 49 51 51 50 50 50 49 48 49 51 53 53 52 51 50 48 47 47 48 46 46 47 47 46 46 46 45 46 44 41 38 38 39 36 33 31 30 28 28 31 32 33 33 32 32 31 30 30 29 28 27 25 24
41 44 46 45 44 45 49 53 55 54 54 54 54 55 56 57 60 63 64 65 64 62 62 63 59 52 46 42 40 41 43 44 47 50 53 53 52 52 52 51 50 50 52 54 54 54 52 52 50 49 49 49 47 48 49 49 48 48 48 48 47 45 43 42 42 40 36 34 33 31 30 31 33 33 33 32 32 32 32 31 31 30 29 28 26
43 45 47 47 46 46 50 54 55 55 56 55 54 54 55 58 61 63 64 65 65 65 66 65 63 59 51 44 41 40 42 44 46 48 51 54 54 54 54 54 52 51 52 53 55 56 56 55 55 52 51 51 51 50 50 51 50 50 52 51 50 50 49 47 45 43 40 38 37 35 33 33 33 33 32 31 32 33 34 33 33 32 31 30 29
45 47 48 49 48 47 49 54 56 55 56 56 54 54 56 59 62 62 63 65 66 67 68 67 66 65 58 49 43 40 40 43 46 47 49 52 55 56 57 57 56 54 53 53 54 56 58 59 59 58 55 53 53 54 53 53 53 53 54 53 53 53 54 52 49 46 44 42 41 39 37 35 34 34 33 32 32 33 34 35 35 34 33 32 31
46 47 49 50 50 49 50 55 57 55 56 56 55 55 57 60 62 63 63 65 67 68 68 68 67 67 63 56 48 42 40 41 44 46 48 50 53 56 57 59 59 58 56 55 54 54 56 59 61 62 61 57 55 56 56 56 56 55 56 55 54 55 55 55 53 50 49 47 44 42 40 38 37 36 34 32 33 33 33 34 36 36 35 34 34
46 47 49 50 50 50 51 56 58 55 56 57 56 56 58 60 63 64 65 66 67 69 69 69 68 66 63 60 54 46 41 39 41 44 47 49 52 54 57 59 60 60 59 58 57 56 56 58 60 63 64 62 58 57 58 59 59 59 58 58 57 56 56 56 55 54 53 50 47 44 43 41 39 38 36 35 35 35 33 34 35 36 36 36 36
48 49 51 51 50 51 53 57 58 57 57 58 57 57 58 61 63 65 66 67 69 70 70 70 70 66 62 62 59 52 45 41 39 42 45 48 51 53 56 58 60 61 61 61 60 58 57 58 59 61 64 65 63 60 59 60 61 61 60 60 60 59 59 58 58 58 57 54 50 46 45 44 42 40 38 37 37 36 36 35 35 36 37 37 37
51 52 54 53 52 53 55 57 59 59 59 58 58 58 59 61 63 65 67 67 68 69 70 71 71 68 63 63 62 56 49 44 40 40 42 45 49 52 55 57 59 62 63 63 62 61 60 60 60 61 63 65 66 64 62 62 63 62 62 62 62 62 62 62 61 61 60 57 54 51 48 47 45 43 41 39 37 36 37 37 37 36 37 37 36
55 55 56 56 55 54 56 59 62 64 63 59 58 59 60 61 64 66 67 67 68 69 69 70 73 72 67 65 64 60 52 46 42 40 41 43 47 51 54 56 58 61 63 64 64 63 63 63 62 62 63 65 67 67 65 63 63 63 63 63 64 64 63 64 65 64 63 60 58 56 53 50 48 46 44 41 39 38 37 37 37 36 36 36 36
57 58 58 58 58 58 59 62 65 67 65 58 58 61 61 63 65 67 68 68 68 69 69 71 76 77 72 68 66 63 56 49 44 41 40 42 45 49 52 55 57 59 62 65 66 66 65 66 65 64 64 65 66 68 68 67 65 64 64 65 66 66 65 65 66 66 66 64 62 59 56 53 50 48 46 44 42 41 39 37 36 36 35 36 37
58 60 59 59 61 62 62 63 66 67 64 58 58 62 64 65 68 69 69 68 70 71 71 74 79 79 75 71 69 66 60 50 44 42 40 40 43 46 49 52 55 58 61 64 68 68 67 67 68 67 66 66 66 67 69 69 68 66 66 66 66 67 67 66 66 67 67 67 65 63 60 57 53 51 49 47 45 43 41 39 38 37 36 35 36
60 61 60 60 64 64 62 62 66 66 61 58 60 65 67 68 71 72 71 70 71 72 74 78 82 80 78 75 72 69 64 54 45 41 39 39 41 44 47 50 53 57 60 63 68 70 69 69 70 70 69 68 67 67 68 70 71 70 69 68 68 68 67 67 66 67 67 67 66 65 63 60 57 54 52 49 47 45 44 43 41 39 38 36 35
62 62 60 62 67 65 60 62 66 64 60 61 64 67 68 70 74 74 72 71 72 74 77 81 85 83 81 79 76 72 67 58 47 42 40 39 40 41 44 47 52 56 59 62 67 71 71 71 72 72 72 71 70 69 69 70 72 73 72 71 70 69 69 68 67 66 67 67 67 66 65 63 60 57 55 52 49 48 46 45 44 42 40 38 37
62 61 61 66 69 65 59 62 66 64 62 63 66 68 69 73 76 75 73 73 74 76 79 84 87 87 84 82 79 74 67 58 48 42 40 40 40 41 42 44 50 55 59 62 65 70 72 72 73 74 73 73 73 71 70 71 72 73 74 74 73 71 70 71 70 68 67 67 67 67 67 66 64 61 58 54 52 50 49 48 46 45 43 41 39
64 62 63 68 69 63 59 62 66 65 63 64 66 68 71 75 76 75 73 74 76 78 81 86 89 89 87 85 82 76 67 58 49 42 39 40 40 41 42 44 48 53 57 61 65 68 72 73 74 75 75 74 74 74 72 72 72 72 74 76 76 74 72 72 72 71 69 68 67 68 69 68 66 64 61 58 54 52 51 50 49 47 45 43 41
65 63 65 68 68 61 57 61 66 65 63 64 66 69 73 76 75 74 74 75 77 79 83 88 91 91 89 88 84 77 69 59 50 43 40 40 41 41 42 44 48 52 55 60 64 67 72 74 74 75 76 76 76 75 74 74 73 72 73 75 77 77 75 73 74 75 73 71 69 69 69 70 68 66 64 61 58 55 53 52 51 49 47 46 43
64 63 66 68 66 58 56 61 65 64 63 65 68 72 74 76 76 75 75 76 78 81 85 90 93 93 92 90 86 80 70 61 52 46 42 41 41 42 43 45 47 52 55 58 62 65 70 75 76 75 76 78 78 77 75 74 75 74 73 74 76 77 77 76 75 77 77 75 73 72 70 70 70 68 65 64 61 58 55 54 52 51 49 48 46
64 66 68 67 60 54 56 62 65 64 65 66 70 74 76 77 77 76 76 77 79 82 87 91 94 95 94 92 88 82 73 64 57 52 48 44 43 43 45 46 47 51 54 57 60 64 68 73 77 76 76 77 80 79 76 74 75 76 75 75 75 76 78 79 77 78 80 78 76 75 73 72 72 70 67 65 63 60 57 55 53 52 50 49 47
68 69 68 62 54 52 58 62 64 65 67 69 73 76 78 79 78 77 77 79 81 85 89 92 95 96 95 93 90 84 75 67 61 58 56 51 47 45 45 47 49 50 53 56 58 62 66 70 75 77 76 76 79 81 79 76 76 77 76 76 76 75 78 80 80 80 81 81 78 77 76 74 73 72 69 67 65 61 58 55 53 52 50 49 47
71 70 66 57 51 53 59 62 65 68 70 73 76 79 81 80 79 78 80 82 85 88 91 94 96 97 97 95 92 87 79 70 64 62 61 58 54 50 47 47 49 51 53 56 58 60 62 66 70 75 76 76 78 81 80 78 77 77 77 77 77 76 77 79 82 83 82 82 81 80 78 76 74 73 71 68 66 63 59 56 54 52 50 49 47
69 67 62 54 52 57 62 65 67 69 71 76 79 81 83 82 80 81 83 85 87 90 92 95 98 99 99 97 95 90 82 73 67 65 65 63 59 56 52 49 50 52 53 55 57 58 59 61 66 71 74 75 77 79 81 80 79 78 77 76 77 77 77 78 81 85 85 84 83 82 80 78 77 75 73 71 68 65 61 58 56 54 52 49 48
68 64 57 54 56 61 65 68 69 70 74 78 81 83 85 84 82 84 87 88 89 91 94 98 100 101 101 100 97 93 85 76 69 67 67 66 62 58 55 52 51 52 53 55 56 57 56 58 62 66 70 73 75 77 80 81 80 79 77 76 77 78 77 77 80 85 87 86 84 83 82 79 78 77 76 73 71 67 64 61 59 57 54 52 49
65 59 56 57 60 65 69 70 71 72 77 81 83 85 86 86 86 88 90 89 90 93 96 100 102 103 103 102 99 95 87 78 71 70 69 67 62 59 56 53 51 52 53 54 55 56 55 57 60 63 66 70 72 74 77 79 80 80 78 76 77 78 78 77 79 83 88 89 87 84 83 80 79 78 77 75 73 70 66 64 62 59 56 54 52
59 57 58 60 63 68 72 73 73 76 80 83 85 86 88 89 89 91 91 91 93 95 98 100 103 105 106 105 101 97 89 79 74 73 72 68 64 60 57 54 52 51 52 53 54 54 55 57 60 62 64 67 70 72 74 76 79 80 80 77 76 78 78 78 79 81 86 90 90 87 84 82 79 78 76 75 74 72 68 65 64 62 59 56 54
55 56 58 61 67 72 75 76 78 80 83 85 86 87 89 90 91 92 93 93 95 98 100 102 105 107 107 106 103 99 90 81 77 76 74 71 66 62 58 55 53 51 51 53 54 53 54 56 59 62 64 66 69 70 72 74 76 78 79 78 76 77 79 79 79 81 84 88 92 90 86 84 81 78 77 75 74 73 69 67 67 65 62 59 55
51 54 60 65 71 74 76 78 81 83 85 86 87 88 89 91 93 95 95 95 98 100 102 104 106 108 108 106 104 100 91 83 82 81 78 73 68 64 60 56 53 52 51 52 54 53 53 55 58 62 63 66 68 70 71 72 74 75 75 76 76 78 80 81 81 82 82 85 90 92 89 86 83 80 78 76 75 73 71 70 69 67 64 60 57
56 61 68 72 74 76 78 80 83 84 85 86 87 90 91 93 96 96 96 98 100 102 103 105 108 109 108 106 104 100 92 87 86 85 82 76 70 65 61 57 54 52 51 51 53 54 53 53 56 60 62 64 67 70 70 71 73 75 72 71 73 77 81 83 82 83 83 82 87 92 92 88 85 82 80 79 77 75 73 72 71 69 66 61 59
64 69 73 75 76 77 80 83 84 85 87 89 91 93 94 96 98 98 98 99 101 103 104 106 110 110 107 106 104 99 92 90 90 88 84 78 72 66 62 58 55 52 51 51 52 53 52 51 54 57 59 62 65 68 70 70 73 75 71 69 72 76 80 82 82 84 84 83 85 90 93 90 87 84 83 82 80 77 75 75 74 71 67 62 59
68 72 75 76 77 79 82 85 86 89 92 94 95 96 98 100 100 98 98 99 102 104 105 109 111 110 107 107 104 99 93 92 92 90 85 79 73 67 62 59 56 53 52 51 51 51 50 49 51 54 56 59 63 66 68 69 72 73 71 70 74 77 79 81 82 82 83 83 85 89 93 93 89 85 85 85 83 80 78 77 76 72 68 64 60
76 79 82 82 81 82 85 87 90 94 97 99 100 100 101 100 98 97 97 100 103 104 107 111 113 110 109 108 105 99 94 93 94 91 84 78 72 67 63 60 57 54 52 51 50 48 46 46 48 51 54 57 60 62 65 67 69 70 70 72 76 77 78 81 81 81 81 82 85 90 93 94 90 87 87 88 85 83 81 79 77 74 70 66 62
80 82 84 84 84 86 89 93 96 98 100 102 102 100 98 97 96 97 100 102 104 106 110 113 112 110 110 110 106 100 95 95 95 90 83 76 71 67 63 60 57 54 51 50 49 46 44 43 45 48 51 54 56 58 60 63 64 66 67 71 76 77 77 78 80 82 81 80 84 91 95 94 91 90 90 89 87 85 83 81 79 76 71 68 64
84 85 84 84 85 89 93 97 99 99 99 100 99 97 96 97 97 99 101 102 104 108 112 113 111 111 112 111 107 101 96 96 93 87 81 75 69 66 63 59 57 54 50 47 47 45 43 42 43 45 47 49 52 53 55 57 59 60 62 66 73 76 76 76 77 80 81 80 84 92 96 95 92 92 92 89 87 86 85 82 81 77 72 68 65
83 84 85 86 89 94 98 100 100 99 99 99 98 97 97 98 99 100 102 103 106 110 112 111 111 112 113 112 107 100 97 96 91 84 78 73 68 64 61 58 55 52 48 45 44 43 42 41 41 42 43 45 46 47 49 51 53 54 56 61 68 73 74 74 75 78 80 81 85 92 96 95 93 94 93 90 87 87 86 84 82 78 73 69 64
Wind_Direction
332 323 317 317 316 308 298 293 295 298 302 304 306 307 307 307 306 305 301 300 302 305 309 310 304 298 295 291 285 277 272 268 265 265 266 267 267 266 264 264 267 267 263 263 267 270 275 278 282 286 288 289 286 281 284 287 281 265 242 228 224 219 214 213 213 212 212 209 200 194 189 183 176 166 157 152 148 143 135 129 119 102 90 85 83
328 323 317 314 313 308 300 295 294 296 298 300 302 303 303 303 303 302 299 296 297 300 304 306 302 296 290 288 287 281 274 268 266 265 266 268 270 269 267 264 264 265 261 257 261 267 274 281 285 288 290 289 284 278 278 280 277 270 251 231 223 220 214 211 212 213 215 215 208 198 192 189 183 174 165 160 157 153 148 142 130 110 93 82 82
321 319 316 313 311 309 304 301 299 298 299 300 301 301 301 301 300 300 298 295 293 295 300 302 299 296 291 285 285 285 279 271 268 267 267 266 266 266 265 262 260 258 259 260 263 270 275 278 282 286 288 287 284 278 274 275 272 270 260 239 225 220 216 211 209 213 215 216 213 204 196 192 190 185 176 172 169 165 158 152 139 117 95 75 68
331 329 325 321 317 313 308 305 302 301 301 301 302 301 300 299 298 297 296 293 291 291 295 298 295 292 291 286 282 283 283 277 271 268 266 265 264 262 260 258 255 252 255 262 267 272 277 280 285 291 288 281 282 278 271 269 268 267 264 249 230 221 217 213 209 210 213 216 215 210 203 196 194 194 191 187 183 175 168 161 148 124 99 78 62
348 347 343 339 334 328 322 316 311 308 306 305 304 304 302 299 297 294 293 290 288 287 289 292 293 291 288 285 280 278 280 280 276 271 267 265 262 259 257 255 250 248 251 257 264 270 278 284 286 294 292 279 278 278 270 265 266 266 266 258 239 225 218 214 210 208 210 213 215 214 209 203 199 199 200 200 196 187 180 172 160 139 110 74 48
355 355 354 352 348 344 338 333 328 323 318 314 310 307 304 300 296 293 289 287 285 283 283 284 286 288 286 284 279 274 274 276 276 273 270 266 262 258 253 251 247 245 246 248 253 256 261 269 273 282 288 280 275 276 271 264 263 264 264 262 250 231 222 216 212 209 208 210 213 215 214 211 206 203 204 206 203 197 192 185 177 164 155 2 356
359 357 357 357 353 350 346 344 342 339 335 328 321 315 308 302 297 293 288 285 283 281 280 280 281 282 283 282 279 274 270 270 272 272 270 266 264 259 252 249 245 243 242 242 244 243 244 249 255 266 279 280 276 273 268 262 260 262 261 262 256 240 227 220 215 211 209 209 211 214 216 216 213 209 207 207 206 203 201 199 194 189 195 264 324
360 358 358 356 351 351 351 351 351 349 346 341 335 328 321 313 304 297 291 287 284 281 279 278 278 278 278 278 276 274 270 267 267 270 270 268 264 260 255 250 246 242 240 241 242 239 242 248 250 258 271 276 274 273 270 262 259 262 261 260 258 248 234 224 219 214 211 209 210 212 215 217 218 216 212 209 209 208 208 209 206 205 209 242 295
355 355 355 351 351 355 356 356 355 355 355 352 348 342 335 327 317 308 300 292 287 283 280 277 276 275 275 275 272 270 268 266 264 265 268 269 267 263 258 253 248 244 241 239 237 232 234 241 247 255 262 265 267 272 270 261 257 258 257 255 256 253 242 230 223 219 215 212 211 212 214 217 219 220 217 214 212 211 212 212 213 213 216 234 266
355 354 352 351 355 358 358 357 357 358 0 359 356 353 348 339 329 320 312 303 294 287 282 278 275 274 273 272 271 269 267 265 263 261 262 265 267 266 261 256 250 247 242 238 236 234 233 235 240 247 248 248 253 257 255 253 254 254 253 252 251 251 247 236 227 221 219 216 213 213 215 216 218 221 221 219 217 214 214 215 215 217 221 232 249
1 358 355 358 1 1 0 358 355 355 356 358 359 360 357 351 342 333 323 314 305 295 287 281 276 273 271 269 269 268 267 264 262 260 258 259 262 265 264 260 253 248 245 240 236 237 238 238 238 240 238 236 238 242 245 247 251 251 250 250 249 248 247 241 231 224 221 220 217 215 215 216 217 219 221 222 222 220 217 216 215 218 222 230 243
6 4 0 360 358 358 358 357 355 352 351 355 359 360 359 357 352 345 334 323 314 303 292 284 278 274 271 269 267 266 265 265 262 260 258 255 256 260 262 262 258 252 248 245 239 236 238 240 239 240 241 238 235 236 240 245 248 248 245 246 248 246 245 243 237 227 223 221 220 218 216 217 218 218 220 222 225 225 222 219 216 217 221 227 238
354 353 350 347 347 349 351 353 355 352 350 351 353 354 355 356 355 352 346 334 322 311 299 289 281 275 271 269 267 264 263 263 262 260 258 255 253 255 258 260 258 255 252 249 245 240 239 241 242 243 243 242 239 235 237 245 250 246 239 239 242 242 242 245 243 234 226 223 222 221 219 218 219 218 219 220 224 227 227 224 220 218 220 225 233
346 346 343 342 345 350 351 353 354 352 348 347 348 350 354 357 357 355 352 345 334 322 310 298 287 278 271 267 266 265 261 259 259 259 257 255 252 251 253 255 256 254 252 250 248 245 242 241 241 241 239 239 239 234 233 239 244 242 237 236 237 238 236 240 245 240 231 226 223 222 222 220 219 220 220 220 222 225 228 229 226 222 222 224 230
349 348 347 347 351 354 355 355 354 352 349 348 349 352 356 359 360 358 356 352 345 335 322 309 296 286 276 267 263 263 261 258 256 255 255 255 253 250 249 250 252 252 250 248 247 247 245 241 236 233 233 234 234 232 233 236 237 237 239 239 238 238 236 237 240 239 234 230 226 223 223 222 220 220 221 221 221 223 225 228 228 226 225 225 228
350 350 349 350 351 353 355 355 354 353 350 348 348 350 354 356 358 359 358 356 352 345 336 323 308 295 285 275 265 260 258 258 256 254 252 252 252 251 248 247 248 249 248 247 246 246 245 242 234 230 229 229 228 228 233 236 234 235 238 239 239 238 239 239 238 237 235 233 230 227 226 226 223 221 221 222 222 222 223 224 227 227 227 227 229
349 348 347 346 345 347 352 354 354 352 349 347 345 345 347 350 353 355 356 356 355 352 346 336 322 307 295 285 275 264 257 254 254 254 252 251 250 250 248 247 245 245 246 246 246 246 245 242 237 233 231 231 230 228 230 231 231 233 234 235 237 236 239 241 238 235 233 232 232 229 229 229 227 224 223 222 222 222 221 221 223 225 227 228 230
346 345 343 340 339 341 346 350 352 351 348 346 344 344 345 347 350 352 352 353 354 354 352 346 335 320 305 293 283 274 264 256 252 251 250 250 250 249 248 247 246 244 243 243 245 247 246 243 240 237 235 235 235 234 231 227 228 232 233 234 236 235 237 241 239 234 230 230 230 227 226 229 230 228 226 224 223 222 221 220 220 222 224 227 229
341 343 342 340 338 340 343 347 350 350 348 345 344 344 345 347 348 349 350 350 352 354 355 353 345 333 319 303 291 281 273 264 256 251 247 246 247 248 248 247 246 245 243 241 242 244 247 246 242 239 238 237 236 236 234 229 228 231 232 233 234 234 236 239 238 234 228 227 229 225 223 227 231 231 227 226 225 224 221 219 218 219 221 224 227
338 340 341 340 339 339 342 344 346 347 346 344 344 344 345 346 347 348 349 349 349 351 353 354 352 344 332 317 302 288 279 272 264 257 251 246 244 246 247 246 245 246 245 243 241 241 244 247 246 242 239 239 237 235 234 231 229 228 229 231 231 231 234 237 237 232 227 227 229 226 224 228 232 232 228 227 227 227 225 221 218 217 218 221 224
336 337 339 339 337 336 339 342 343 344 345 343 343 343 344 345 347 347 348 348 348 348 349 351 352 350 342 329 314 298 285 277 270 264 257 251 246 244 245 245 244 245 245 244 242 241 241 243 246 245 241 239 238 236 233 231 229 227 227 229 230 230 231 234 235 230 226 228 228 225 222 225 231 232 231 230 228 228 228 226 222 218 217 218 221
333 334 335 336 334 333 335 338 339 340 342 342 342 343 343 344 346 347 348 348 347 347 347 348 349 349 347 339 326 310 295 283 275 269 263 258 252 247 245 244 243 243 244 243 243 242 241 240 242 245 244 240 237 236 234 232 230 226 226 228 229 229 229 232 233 227 224 227 227 224 221 222 227 228 228 230 229 228 228 228 226 222 218 218 219
330 331 332 332 332 331 332 335 337 337 339 341 341 342 343 343 345 346 347 347 346 346 346 346 346 346 346 343 334 321 306 291 280 273 267 262 258 253 249 246 243 242 242 242 242 242 242 240 239 241 242 242 238 235 234 233 231 228 226 228 229 229 228 230 230 223 222 226 225 223 221 220 222 223 224 227 228 230 230 229 229 226 222 219 218
330 330 331 330 329 330 330 334 336 335 337 339 340 341 341 342 343 345 346 346 346 345 345 344 344 343 344 343 338 329 317 301 285 276 270 265 261 257 254 251 247 244 241 240 240 240 241 242 240 238 239 240 239 236 234 233 233 232 230 228 228 229 228 229 228 223 221 223 223 223 221 219 219 220 222 223 223 226 228 228 229 228 226 222 219
330 331 331 329 327 328 329 333 336 334 333 336 338 339 340 341 341 343 344 345 345 345 345 344 343 343 343 342 339 332 324 312 294 280 272 267 263 260 257 254 252 249 245 241 238 237 239 241 241 239 237 238 238 236 234 232 232 233 232 230 228 228 228 228 228 226 223 222 224 224 221 219 219 221 222 221 221 221 222 224 226 227 227 225 222
329 330 331 329 326 325 327 331 334 333 331 331 335 338 339 339 339 341 343 344 345 345 345 345 345 344 343 342 340 333 326 318 304 287 275 269 265 261 259 256 254 252 251 247 243 238 237 238 240 241 239 236 236 236 235 233 232 232 232 232 229 227 227 227 228 227 225 225 227 227 224 221 221 222 222 221 220 220 219 219 220 222 224 224 224
327 328 330 330 326 322 324 327 330 331 329 328 332 336 337 337 337 338 341 342 343 343 343 343 344 343 341 340 340 335 327 320 311 296 281 272 266 263 260 258 256 254 253 251 248 244 239 237 237 239 240 238 235 234 234 233 232 232 231 231 230 229 228 227 227 228 227 227 229 230 227 224 223 223 223 222 221 220 219 218 218 218 220 221 222
323 324 326 328 326 321 321 324 326 327 327 326 329 333 335 334 335 336 338 340 341 341 342 341 341 341 340 338 338 337 329 319 313 304 290 277 270 264 261 259 258 257 255 253 251 248 244 241 237 235 238 240 238 235 233 233 232 232 231 230 230 231 231 229 228 228 228 228 229 230 227 225 224 223 223 222 222 222 221 219 218 218 218 218 219
319 321 322 324 325 322 320 322 324 325 325 325 327 330 332 332 333 334 336 337 338 339 339 339 340 340 339 337 336 336 332 320 311 306 297 286 276 269 263 260 259 258 257 256 254 250 247 244 241 237 235 237 239 238 235 233 232 232 231 230 230 231 231 230 229 229 228 228 229 229 226 224 224 224 223 223 223 223 223 221 219 219 218 219 219
315 318 319 321 323 323 321 322 324 323 323 324 326 328 329 330 332 333 334 335 336 337 337 337 339 338 338 337 334 334 333 325 312 305 299 290 282 275 268 263 259 258 258 257 256 254 250 246 244 241 237 235 237 239 238 236 233 232 232 231 230 230 231 231 230 230 229 228 228 228 226 224 224 225 224 224 224 224 224 223 222 221 221 221 221
313 315 316 319 321 321 319 321 324 322 322 324 325 327 328 329 331 332 332 332 333 334 334 335 337 337 337 336 334 333 332 328 316 304 299 292 286 280 274 267 262 259 257 257 257 256 254 250 247 243 241 238 236 236 238 239 236 234 232 232 231 231 231 232 230 230 230 230 228 227 225 224 224 225 225 224 224 225 225 226 225 225 224 224 224
312 313 314 317 319 318 316 319 323 322 321 323 325 327 328 329 330 330 330 330 331 332 333 334 336 336 336 336 334 332 331 329 320 307 298 293 288 282 277 271 264 260 258 256 256 256 255 253 250 247 243 241 238 235 235 237 238 236 234 233 231 231 232 232 231 230 230 230 229 227 225 224 224 225 225 224 225 226 226 227 227 228 228 227 226
310 311 312 315 318 316 313 317 321 320 320 322 324 326 327 328 329 329 328 328 330 331 332 334 335 336 336 335 334 332 330 328 323 311 298 290 286 282 277 272 266 261 259 258 256 256 256 254 252 251 248 243 240 237 235 235 236 237 236 235 232 231 232 232 231 230 230 230 230 228 226 224 224 225 225 224 225 226 226 227 227 228 229 230 229
308 309 311 314 316 313 310 314 318 318 318 320 323 324 326 328 328 327 327 328 330 331 331 333 334 335 334 334 333 332 330 327 323 315 301 290 284 280 277 274 269 264 261 259 257 256 256 255 253 251 250 248 244 240 236 234 234 234 236 236 235 232 231 232 231 230 229 230 230 229 227 225 224 224 225 225 225 226 227 227 227 228 229 231 232
306 308 311 314 313 309 307 312 316 316 316 318 321 323 325 327 327 326 326 328 329 330 331 332 333 333 333 333 333 332 330 327 324 318 308 294 285 280 276 274 271 268 263 260 258 257 256 257 255 251 250 249 248 244 239 235 234 234 234 235 235 234 232 231 231 230 229 229 230 230 228 225 224 225 225 225 225 226 227 227 226 227 228 231 233
306 309 311 312 310 306 306 311 314 314 315 317 319 322 325 326 325 325 325 327 328 329 330 331 332 332 332 332 333 332 328 326 323 320 314 302 291 282 277 274 272 270 267 262 259 257 256 256 256 254 250 249 249 248 244 238 235 234 233 233 234 234 232 230 230 229 229 229 230 230 229 227 225 226 226 226 225 225 225 226 225 226 227 229 231
306 307 309 309 307 304 306 310 311 311 313 315 317 320 324 325 324 324 324 325 327 328 329 330 331 331 331 331 331 330 326 322 319 318 316 309 299 288 279 275 272 270 269 265 261 258 256 256 256 256 253 250 248 248 247 243 238 235 233 232 232 232 231 230 229 229 229 229 229 230 230 228 226 226 227 226 225 224 223 224 224 225 226 228 229
303 303 306 305 301 302 306 307 308 309 311 313 316 318 322 324 323 322 322 323 325 327 328 329 330 330 330 330 330 329 326 321 317 316 315 312 305 295 285 278 274 270 269 267 264 260 258 256 256 256 255 252 249 248 247 245 242 238 234 232 232 231 230 230 229 229 228 228 229 230 230 229 227 226 226 225 224 222 221 221 222 224 225 226 228
299 300 303 300 296 299 304 305 306 308 310 313 314 317 320 322 321 320 321 322 324 326 327 327 328 329 329 329 328 328 326 321 317 315 314 313 308 300 291 284 278 273 269 268 266 263 261 258 257 256 256 254 251 249 248 246 244 241 237 233 231 231 230 229 229 229 229 228 227 229 230 229 228 226 224 224 223 221 220 221 222 224 225 226 228
296 299 299 295 293 297 301 303 305 308 310 312 313 315 318 319 319 319 319 321 323 325 325 326 327 327 328 327 327 326 325 321 317 315 313 312 308 302 295 287 281 275 271 268 266 264 263 260 257 256 256 255 253 250 249 247 245 242 239 235 233 231 230 229 229 229 229 228 226 227 229 229 228 225 224 223 222 221 221 221 222 224 226 226 226
295 296 295 291 291 295 298 301 305 307 310 311 311 313 315 317 317 317 318 320 322 323 324 325 326 326 327 326 326 325 324 321 317 315 313 311 308 303 296 289 283 277 272 269 266 264 262 259 257 255 254 255 255 252 250 248 247 244 241 236 234 233 230 229 229 229 228 228 226 225 226 228 227 225 223 222 221 221 221 222 223 225 226 225 224
294 291 291 289 290 294 298 301 304 306 308 308 309 310 313 315 316 316 317 319 321 321 322 323 325 325 326 325 325 325 323 320 318 317 315 312 309 304 298 292 285 279 273 269 266 263 260 258 255 254 253 253 254 254 252 250 248 246 244 239 234 233 232 230 229 229 228 228 227 225 225 226 226 224 223 221 220 221 221 221 223 225 225 223 221
292 287 287 287 290 295 298 301 303 304 305 305 306 308 311 313 314 314 316 317 319 319 320 322 323 325 325 325 325 324 323 321 319 318 316 313 310 305 299 293 288 281 276 272 268 263 259 256 254 252 251 250 251 252 252 252 250 248 246 243 237 234 232 231 230 229 228 228 228 226 224 224 225 224 223 221 220 220 221 221 222 224 225 223 220
291 288 288 289 293 297 299 301 301 302 303 303 303 306 309 311 312 313 315 316 317 318 319 321 323 324 324 324 324 324 323 321 320 319 317 314 311 306 301 295 290 285 280 275 271 266 260 256 253 252 250 249 249 249 250 251 251 250 248 245 241 236 233 231 231 231 229 228 228 228 225 223 223 223 222 221 220 220 220 220 222 223 224 223 220
293 292 292 293 296 298 300 301 301 301 301 301 302 305 308 310 311 313 315 316 316 317 319 320 322 323 323 324 324 323 322 321 321 320 318 314 311 307 302 296 292 287 283 278 274 269 264 258 254 252 250 248 248 247 247 247 249 251 249 245 243 240 236 233 231 231 230 227 227 228 226 223 222 221 221 221 220 219 219 220 221 222 223 222 220
294 294 294 295 297 298 299 299 299 299 299 300 302 305 307 309 310 312 314 314 316 317 318 320 321 322 322 324 324 323 321 321 321 321 318 315 312 308 303 299 295 290 285 280 276 272 268 263 258 254 251 249 247 247 246 245 246 248 248 245 242 240 238 235 233 232 231 227 225 228 227 223 221 220 220 220 219 218 218 219 221 222 222 222 221
294 294 295 295 297 297 298 297 297 298 299 300 302 304 306 308 310 312 313 314 315 316 318 319 320 321 322 324 324 322 321 321 321 320 318 315 312 309 305 301 297 293 288 283 278 275 271 267 262 257 253 250 248 247 246 245 244 245 245 243 241 239 237 236 234 232 230 225 222 226 227 224 220 218 219 220 219 218 218 219 221 222 222 223 223
293 294 294 294 295 296 297 297 298 298 298 299 301 303 306 308 310 312 313 314 315 316 317 318 319 321 323 324 323 322 321 321 321 320 317 315 313 310 307 303 299 295 290 286 283 279 274 268 263 259 256 252 249 248 247 245 244 244 242 240 240 238 235 234 232 231 229 223 220 223 226 224 219 216 218 219 218 217 218 219 220 221 222 223 225
290 291 292 293 294 294 295 297 298 299 299 300 303 305 307 309 311 311 312 313 314 315 316 317 318 320 322 323 323 322 320 320 320 318 316 314 313 310 308 305 300 296 293 290 287 283 277 270 263 259 257 254 252 250 248 246 244 243 241 239 238 238 236 233 231 229 228 223 218 220 224 224 218 214 216 218 216 216 217 218 220 221 222 224 225
287 289 290 291 292 293 294 296 297 298 299 301 303 305 306 308 309 310 311 312 313 314 315 316 318 320 322 322 322 320 320 320 319 317 316 314 312 310 308 305 300 297 295 293 289 284 278 272 266 262 258 256 254 252 250 248 245 242 239 236 236 237 235 233 230 228 226 221 216 217 222 223 217 212 215 216 215 215 216 217 219 220 221 223 224
287 287 288 289 290 292 294 295 296 297 299 301 302 303 305 306 308 309 310 310 311 312 314 316 318 320 321 321 321 319 319 319 318 317 316 314 313 311 309 305 301 298 296 294 289 283 279 274 270 266 262 258 256 253 251 248 245 241 236 233 233 234 234 231 228 226 223 219 214 215 221 222 216 211 213 215 213 213 215 216 218 220 221 221 222
Height
10943 10942 10941 10940 10939 10939 10939 10938 10937 10936 10934 10932 10931 10930 10928 10928 10928 10928 10927 10927 10926 10926 10926 10927 10926 10926 10925 10924 10923 10923 10923 10923 10923 10923 10922 10922 10922 10922 10922 10923 10925 10926 10927 10927 10926 10926 10926 10925 10925 10925 10926 10926 10926 10926 10926 10926 10926 10926 10926 10925 10925 10925 10926 10927 10929 10930 10931 10932 10932 10933 10933 10933 10933 10933 10932 10932 10933 10933 10934 10934 10935 10935 10936 10936 10936
10942 10941 10940 10939 10938 10938 10937 10937 10936 10934 10933 10931 10929 10928 10927 10926 10925 10925 10925 10924 10924 10923 10923 10923 10923 10923 10923 10922 10921 10921 10921 10921 10921 10921 10921 10920 10920 10919 10919 10920 10922 10923 10924 10924 10925 10925 10924 10924 10924 10923 10924 10925 10925 10925 10925 10925 10925 10925 10925 10924 10924 10924 10925 10926 10928 10929 10930 10931 10932 10933 10933 10933 10933 10933 10933 10933 10933 10933 10934 10934 10935 10935 10936 10936 10937
10941 10940 10938 10937 10937 10936 10935 10935 10934 10932 10931 10929 10928 10926 10925 10923 10922 10922 10921 10921 10921 10921 10920 10920 10919 10920 10920 10919 10919 10918 10918 10919 10919 10919 10919 10919 10918 10917 10917 10917 10918 10918 10919 10921 10923 10923 10922 10922 10922 10922 10923 10924 10924 10923 10924 10924 10924 10924 10924 10923 10923 10923 10924 10925 10926 10928 10930 10931 10931 10932 10933 10933 10934 10934 10934 10933 10933 10933 10934 10934 10935 10936 10936 10936 10937
10940 10938 10936 10935 10935 10934 10933 10932 10931 10930 10928 10927 10926 10925 10923 10922 10920 10919 10918 10917 10918 10918 10917 10917 10916 10916 10916 10916 10916 10916 10916 10916 10916 10916 10917 10917 10916 10915 10915 10914 10914 10915 10916 10918 10921 10921 10921 10921 10920 10920 10921 10922 10922 10922 10922 10922 10922 10922 10923 10923 10922 10922 10922 10923 10924 10926 10928 10930 10931 10931 10932 10933 10933 10934 10934 10934 10934 10934 10934 10934 10935 10936 10936 10936 10936
10939 10937 10935 10934 10933 10932 10931 10930 10929 10927 10926 10924 10923 10921 10920 10919 10918 10916 10915 10914 10913 10913 10913 10914 10913 10913 10913 10913 10913 10913 10913 10913 10913 10913 10913 10913 10913 10913 10912 10912 10912 10912 10914 10916 10917 10918 10919 10919 10918 10918 10918 10920 10921 10921 10921 10921 10921 10921 10921 10921 10921 10921 10921 10922 10923 10924 10926 10928 10929 10930 10931 10932 10932 10933 10934 10934 10934 10934 10934 10935 10935 10936 10936 10936 10936
10938 10936 10934 10933 10931 10930 10929 10928 10927 10926 10924 10922 10920 10918 10917 10916 10915 10914 10913 10911 10910 10910 10910 10910 10910 10910 10909 10909 10910 10910 10910 10910 10909 10909 10909 10909 10909 10910 10910 10910 10909 10910 10911 10912 10913 10913 10914 10915 10915 10916 10917 10918 10919 10920 10920 10920 10920 10920 10920 10920 10920 10920 10920 10921 10921 10923 10924 10926 10927 10929 10930 10931 10932 10932 10933 10934 10934 10934 10934 10935 10935 10936 10936 10936 10937
10937 10936 10934 10933 10932 10931 10929 10928 10926 10924 10923 10921 10919 10917 10915 10913 10911 10910 10909 10909 10908 10907 10906 10906 10905 10905 10905 10905 10905 10905 10906 10906 10906 10905 10905 10905 10905 10905 10906 10907 10906 10906 10907 10907 10909 10909 10910 10910 10911 10914 10916 10917 10919 10919 10918 10918 10918 10918 10918 10919 10919 10919 10920 10920 10920 10921 10922 10924 10925 10927 10928 10930 10931 10931 10932 10933 10934 10934 10934 10935 10935 10936 10936 10937 10937
10936 10935 10934 10933 10933 10932 10930 10928 10925 10924 10922 10920 10917 10915 10913 10911 10909 10907 10906 10905 10904 10904 10903 10901 10900 10900 10900 10901 10901 10901 10901 10902 10902 10902 10901 10901 10901 10901 10902 10903 10903 10903 10903 10904 10905 10907 10908 10909 10910 10912 10915 10917 10918 10917 10916 10916 10916 10916 10917 10917 10918 10918 10919 10919 10919 10920 10921 10922 10923 10925 10926 10928 10929 10930 10931 10932 10933 10933 10934 10935 10935 10936 10936 10937 10937
10936 10934 10933 10934 10934 10932 10930 10927 10925 10923 10921 10918 10916 10914 10911 10908 10906 10904 10902 10901 10900 10899 10898 10897 10896 10895 10895 10895 10896 10897 10897 10897 10898 10898 10897 10897 10897 10897 10897 10898 10898 10898 10899 10900 10902 10903 10905 10906 10909 10912 10914 10915 10915 10915 10914 10914 10915 10915 10915 10915 10915 10916 10917 10918 10918 10919 10919 10920 10921 10922 10924 10926 10928 10929 10930 10931 10932 10933 10933 10934 10935 10935 10936 10937 10937
10936 10935 10934 10935 10934 10932 10930 10928 10925 10923 10920 10917 10914 10912 10910 10907 10904 10901 10899 10897 10896 10894 10893 10892 10892 10891 10890 10890 10890 10891 10892 10892 10892 10893 10893 10893 10892 10892 10892 10893 10893 10893 10893 10895 10897 10899 10901 10903 10905 10908 10910 10911 10910 10910 10910 10912 10913 10913 10913 10913 10913 10914 10915 10916 10917 10917 10918 10919 10919 10920 10922 10923 10925 10927 10929 10930 10931 10932 10932 10933 10934 10935 10936 10936 10937
10936 10936 10936 10935 10933 10931 10929 10927 10925 10921 10918 10915 10912 10909 10907 10904 10901 10898 10895 10893 10892 10890 10888 10887 10886 10886 10885 10885 10885 10886 10886 10886 10887 10887 10888 10889 10888 10888 10888 10888 10889 10888 10887 10889 10893 10895 10897 10899 10900 10901 10903 10904 10905 10905 10906 10909 10911 10911 10911 10911 10910 10910 10912 10913 10914 10915 10916 10917 10918 10918 10920 10921 10923 10925 10927 10929 10930 10931 10932 10932 10933 10934 10935 10936 10936
10938 10938 10937 10934 10932 10930 10927 10925 10922 10919 10915 10912 10909 10906 10904 10901 10898 10894 10891 10888 10887 10886 10884 10882 10881 10881 10881 10880 10880 10880 10881 10881 10881 10882 10882 10884 10884 10884 10884 10884 10884 10884 10883 10884 10888 10892 10893 10894 10895 10895 10896 10898 10900 10901 10903 10905 10907 10908 10908 10908 10908 10908 10908 10909 10911 10912 10913 10914 10915 10916 10918 10919 10921 10923 10925 10927 10929 10930 10931 10931 10932 10933 10934 10935 10936
10940 10938 10936 10933 10931 10928 10925 10922 10918 10916 10913 10910 10907 10904 10901 10898 10895 10892 10889 10884 10881 10880 10879 10877 10876 10876 10875 10874 10874 10874 10875 10875 10875 10875 10876 10878 10879 10880 10880 10880 10880 10880 10880 10880 10883 10887 10889 10890 10890 10890 10891 10893 10895 10897 10900 10902 10903 10902 10902 10902 10904 10905 10905 10906 10908 10909 10910 10910 10912 10913 10915 10917 10918 10920 10922 10925 10927 10929 10930 10930 10931 10932 10933 10934 10935
10939 10937 10934 10931 10929 10926 10922 10919 10915 10912 10910 10907 10905 10902 10899 10896 10893 10890 10886 10882 10878 10875 10873 10872 10870 10869 10869 10869 10868 10868 10869 10870 10869 10869 10870 10871 10873 10875 10876 10876 10876 10877 10877 10876 10878 10881 10883 10885 10886 10886 10886 10888 10890 10893 10895 10895 10895 10895 10895 10896 10898 10900 10902 10903 10905 10907 10907 10908 10908 10910 10911 10914 10916 10918 10920 10922 10925 10927 10928 10930 10930 10931 10932 10932 10933
10936 10933 10930 10928 10925 10923 10919 10916 10912 10909 10907 10905 10902 10899 10895 10892 10889 10886 10882 10879 10875 10871 10869 10867 10864 10862 10862 10864 10864 10862 10862 10863 10863 10863 10864 10865 10866 10868 10870 10872 10872 10872 10873 10873 10873 10875 10876 10879 10881 10882 10882 10883 10886 10888 10887 10887 10887 10889 10891 10892 10895 10898 10900 10900 10902 10904 10905 10905 10906 10907 10908 10910 10912 10915 10917 10919 10922 10924 10926 10928 10929 10930 10931 10932 10932
10932 10929 10926 10924 10921 10918 10915 10912 10909 10906 10904 10901 10898 10894 10890 10887 10885 10882 10879 10875 10871 10867 10864 10862 10859 10856 10855 10856 10858 10858 10857 10857 10857 10857 10858 10859 10860 10861 10863 10865 10867 10868 10868 10869 10869 10870 10871 10873 10875 10877 10878 10879 10881 10882 10882 10882 10883 10885 10887 10889 10893 10896 10898 10898 10899 10900 10901 10902 10903 10905 10907 10908 10910 10911 10914 10916 10919 10921 10923 10925 10927 10929 10930 10931 10932
10929 10926 10923 10920 10918 10915 10912 10909 10906 10903 10900 10897 10894 10890 10887 10883 10881 10878 10875 10872 10868 10863 10859 10857 10854 10851 10849 10849 10850 10850 10850 10851 10851 10851 10851 10852 10853 10854 10856 10858 10860 10861 10863 10863 10864 10866 10867 10868 10870 10871 10873 10874 10875 10877 10878 10878 10879 10881 10883 10886 10890 10892 10894 10896 10897 10898 10899 10899 10900 10903 10905 10907 10908 10909 10910 10913 10915 10917 10919 10921 10924 10926 10928 10929 10931
10926 10924 10921 10918 10915 10912 10909 10906 10903 10900 10897 10893 10890 10886 10883 10880 10877 10874 10871 10869 10865 10861 10856 10853 10850 10847 10845 10843 10842 10842 10843 10844 10845 10845 10846 10846 10846 10847 10849 10851 10852 10854 10856 10858 10859 10860 10861 10863 10865 10866 10867 10868 10870 10871 10873 10874 10875 10876 10879 10882 10885 10888 10890 10892 10894 10896 10896 10896 10897 10899 10902 10904 10905 10907 10908 10910 10912 10914 10916 10918 10920 10922 10925 10927 10929
10924 10921 10919 10916 10912 10909 10906 10903 10900 10896 10893 10889 10886 10883 10879 10876 10873 10870 10867 10865 10862 10859 10855 10851 10847 10843 10840 10838 10836 10835 10835 10835 10836 10838 10840 10841 10840 10840 10842 10844 10845 10847 10849 10851 10853 10854 10855 10856 10858 10860 10861 10862 10864 10865 10867 10869 10870 10872 10874 10877 10880 10883 10886 10888 10891 10892 10893 10893 10894 10896 10898 10900 10902 10903 10904 10906 10908 10910 10912 10914 10916 10918 10921 10924 10926
10921 10918 10915 10912 10909 10907 10903 10900 10897 10894 10890 10887 10883 10880 10877 10874 10871 10867 10863 10860 10858 10855 10852 10848 10845 10840 10836 10833 10831 10829 10828 10827 10828 10829 10831 10834 10835 10835 10835 10836 10838 10839 10841 10843 10846 10848 10849 10850 10851 10853 10855 10856 10858 10859 10861 10863 10865 10867 10869 10872 10875 10878 10881 10883 10886 10888 10889 10890 10891 10893 10895 10897 10898 10900 10901 10902 10905 10907 10910 10911 10913 10915 10917 10920 10922
10917 10914 10912 10909 10907 10904 10901 10898 10895 10891 10888 10885 10881 10877 10874 10871 10868 10864 10860 10856 10853 10849 10846 10843 10841 10838 10834 10830 10827 10824 10823 10821 10820 10821 10822 10824 10827 10829 10828 10829 10831 10832 10833 10836 10838 10841 10843 10844 10845 10846 10848 10850 10852 10854 10856 10857 10860 10862 10865 10867 10871 10873 10875 10878 10880 10882 10885 10886 10887 10889 10890 10892 10895 10897 10898 10899 10900 10902 10906 10909 10910 10912 10913 10916 10919
10914 10911 10909 10907 10904 10901 10898 10896 10892 10889 10886 10882 10878 10874 10871 10868 10865 10861 10856 10852 10848 10844 10841 10837 10835 10833 10830 10826 10822 10820 10817 10815 10814 10814 10814 10814 10817 10821 10822 10822 10823 10825 10826 10828 10830 10833 10835 10837 10838 10840 10841 10843 10845 10847 10849 10851 10854 10856 10859 10863 10866 10868 10870 10872 10874 10877 10879 10881 10883 10884 10886 10888 10890 10893 10894 10895 10896 10898 10901 10905 10907 10909 10911 10912 10915
10912 10909 10907 10904 10901 10899 10896 10893 10889 10886 10882 10878 10874 10870 10867 10864 10860 10857 10853 10849 10845 10841 10837 10833 10830 10827 10824 10821 10818 10815 10812 10810 10808 10807 10807 10807 10807 10810 10812 10814 10816 10817 10818 10819 10822 10825 10826 10828 10831 10833 10835 10837 10839 10840 10842 10844 10847 10850 10853 10857 10860 10862 10864 10866 10868 10871 10873 10875 10877 10879 10881 10883 10886 10888 10889 10891 10893 10895 10898 10901 10904 10906 10908 10909 10911
10909 10907 10904 10901 10898 10895 10892 10888 10885 10881 10877 10874 10869 10865 10862 10859 10855 10852 10848 10844 10841 10837 10833 10830 10826 10823 10819 10816 10813 10810 10807 10805 10803 10801 10800 10800 10799 10800 10802 10804 10806 10809 10811 10812 10814 10817 10819 10820 10823 10825 10827 10830 10832 10834 10835 10837 10839 10843 10847 10851 10853 10856 10858 10861 10863 10865 10868 10870 10872 10875 10877 10879 10881 10883 10884 10886 10889 10892 10895 10897 10900 10903 10905 10907 10908
10904 10902 10899 10896 10892 10889 10886 10883 10879 10876 10873 10870 10866 10862 10858 10854 10850 10847 10843 10840 10836 10833 10829 10825 10822 10819 10815 10811 10808 10804 10802 10799 10797 10795 10794 10793 10793 10792 10792 10794 10796 10798 10802 10804 10807 10809 10811 10813 10814 10817 10819 10822 10825 10827 10829 10830 10832 10836 10840 10843 10846 10849 10851 10854 10856 10859 10862 10865 10868 10871 10873 10875 10877 10879 10881 10883 10885 10888 10891 10893 10896 10899 10902 10904 10905
10898 10895 10892 10889 10886 10883 10880 10877 10874 10872 10868 10865 10861 10858 10854 10851 10847 10844 10840 10837 10833 10830 10826 10822 10818 10815 10812 10808 10804 10800 10797 10794 10791 10789 10788 10787 10786 10785 10785 10785 10787 10788 10791 10795 10798 10802 10804 10805 10807 10809 10811 10814 10817 10819 10822 10824 10826 10829 10832 10835 10838 10841 10844 10847 10849 10852 10856 10859 10862 10866 10869 10871 10873 10875 10877 10879 10882 10884 10887 10889 10892 10895 10898 10900 10902
10891 10888 10886 10883 10880 10877 10874 10872 10869 10866 10863 10860 10857 10854 10850 10848 10845 10841 10838 10835 10831 10828 10824 10819 10816 10813 10809 10805 10801 10796 10792 10789 10786 10784 10782 10781 10780 10779 10778 10778 10779 10780 10782 10784 10788 10792 10795 10797 10799 10801 10802 10804 10808 10811 10814 10816 10819 10822 10825 10828 10831 10834 10837 10840 10842 10846 10849 10853 10856 10860 10863 10866 10869 10871 10874 10876 10878 10880 10883 10886 10888 10891 10893 10895 10898
10884 10882 10880 10877 10874 10872 10869 10866 10864 10861 10857 10854 10852 10849 10846 10843 10840 10837 10834 10830 10827 10824 10821 10816 10811 10808 10804 10800 10797 10793 10788 10784 10781 10779 10777 10776 10774 10773 10773 10773 10773 10773 10773 10774 10776 10781 10785 10787 10789 10792 10794 10796 10798 10802 10806 10809 10812 10815 10818 10821 10823 10826 10830 10833 10836 10839 10843 10846 10850 10853 10857 10861 10864 10867 10869 10872 10874 10876 10879 10882 10884 10886 10889 10891 10893
10880 10877 10875 10872 10869 10866 10864 10862 10859 10855 10852 10849 10846 10843 10840 10838 10835 10832 10828 10825 10822 10819 10816 10812 10806 10801 10797 10793 10791 10788 10784 10780 10777 10774 10772 10770 10769 10767 10767 10767 10767 10766 10765 10764 10765 10768 10774 10777 10778 10782 10785 10787 10790 10793 10797 10801 10804 10807 10810 10813 10816 10819 10822 10826 10829 10833 10836 10840 10843 10846 10850 10854 10858 10861 10864 10867 10870 10873 10875 10878 10880 10882 10885 10887 10889
10876 10873 10870 10867 10864 10862 10859 10857 10854 10851 10847 10844 10841 10838 10834 10832 10829 10826 10823 10820 10816 10813 10809 10806 10802 10796 10791 10786 10783 10780 10777 10774 10771 10769 10767 10765 10763 10761 10761 10762 10761 10760 10759 10757 10754 10756 10762 10766 10768 10771 10774 10778 10782 10784 10787 10791 10796 10799 10803 10805 10809 10812 10815 10818 10822 10826 10829 10832 10835 10838 10842 10847 10851 10855 10859 10863 10866 10869 10871 10873 10876 10878 10880 10883 10885
10871 10868 10866 10862 10859 10857 10854 10852 10849 10845 10842 10839 10835 10832 10828 10826 10823 10820 10817 10814 10811 10808 10804 10800 10796 10791 10786 10780 10776 10772 10770 10767 10764 10763 10761 10759 10757 10756 10756 10756 10755 10754 10753 10752 10748 10745 10749 10755 10757 10760 10764 10767 10771 10775 10778 10781 10786 10790 10794 10797 10800 10804 10807 10811 10814 10818 10821 10824 10828 10831 10835 10840 10844 10848 10852 10857 10861 10864 10867 10869 10872 10874 10876 10879 10881
10866 10864 10861 10858 10854 10851 10849 10846 10843 10839 10836 10833 10829 10826 10823 10820 10817 10814 10811 10808 10805 10802 10798 10793 10788 10783 10779 10774 10769 10765 10763 10760 10758 10757 10755 10752 10751 10749 10749 10749 10747 10746 10745 10745 10743 10738 10738 10742 10745 10748 10753 10757 10760 10764 10768 10770 10774 10780 10784 10788 10792 10796 10799 10802 10806 10810 10813 10817 10820 10824 10828 10832 10837 10841 10846 10850 10855 10859 10862 10865 10867 10870 10872 10874 10877
10861 10859 10856 10853 10849 10846 10843 10840 10837 10834 10831 10828 10824 10821 10818 10815 10812 10809 10806 10803 10799 10795 10790 10786 10781 10776 10772 10768 10763 10758 10755 10753 10751 10750 10749 10746 10744 10742 10742 10741 10739 10738 10738 10737 10736 10733 10729 10731 10735 10737 10741 10745 10748 10752 10757 10760 10763 10769 10774 10777 10782 10787 10791 10794 10798 10802 10805 10809 10813 10817 10821 10825 10829 10834 10838 10843 10848 10852 10856 10859 10862 10865 10868 10870 10873
10856 10854 10851 10848 10845 10841 10839 10836 10832 10829 10827 10824 10820 10817 10814 10810 10807 10804 10800 10796 10792 10787 10783 10779 10775 10770 10765 10761 10757 10752 10748 10745 10744 10743 10742 10740 10738 10736 10734 10733 10730 10729 10730 10728 10727 10727 10722 10719 10723 10727 10729 10732 10736 10740 10745 10749 10753 10759 10763 10766 10772 10778 10782 10786 10790 10793 10797 10801 10805 10809 10814 10818 10823 10827 10831 10836 10841 10846 10849 10853 10856 10860 10863 10866 10868
10849 10848 10846 10843 10840 10836 10834 10831 10827 10824 10822 10819 10816 10812 10808 10805 10801 10797 10794 10790 10786 10781 10777 10773 10768 10764 10759 10754 10750 10745 10740 10737 10736 10735 10734 10733 10731 10729 10727 10725 10723 10721 10720 10720 10719 10719 10716 10710 10710 10716 10720 10721 10723 10727 10734 10740 10743 10748 10753 10756 10761 10768 10773 10777 10781 10784 10788 10792 10797 10801 10806 10811 10816 10820 10825 10829 10835 10839 10843 10847 10850 10854 10857 10861 10864
10842 10841 10840 10837 10834 10831 10828 10825 10821 10818 10816 10814 10810 10806 10803 10799 10795 10791 10788 10784 10780 10776 10772 10767 10762 10757 10752 10747 10743 10739 10735 10731 10728 10726 10725 10724 10723 10721 10719 10717 10716 10713 10710 10710 10710 10709 10708 10703 10699 10703 10709 10712 10712 10715 10722 10729 10733 10737 10742 10746 10751 10758 10763 10767 10772 10775 10778 10783 10788 10793 10798 10804 10809 10814 10818 10823 10828 10833 10837 10841 10844 10848 10852 10855 10858
10836 10834 10833 10831 10828 10825 10822 10819 10815 10812 10810 10807 10803 10800 10796 10792 10788 10784 10780 10777 10774 10770 10765 10760 10756 10751 10747 10742 10738 10734 10730 10726 10722 10718 10716 10714 10712 10711 10710 10708 10707 10704 10701 10700 10700 10699 10699 10697 10692 10691 10696 10702 10703 10704 10710 10717 10721 10726 10731 10736 10741 10747 10752 10757 10762 10766 10769 10774 10780 10785 10790 10795 10801 10806 10811 10816 10821 10826 10831 10835 10838 10842 10846 10850 10853
10830 10828 10826 10825 10822 10819 10816 10812 10809 10806 10803 10799 10796 10792 10789 10785 10781 10777 10773 10770 10766 10762 10758 10753 10749 10745 10741 10736 10731 10727 10723 10718 10714 10710 10706 10704 10702 10700 10700 10698 10696 10694 10692 10690 10689 10689 10689 10690 10687 10683 10683 10689 10693 10693 10698 10705 10709 10713 10720 10726 10731 10735 10741 10747 10752 10756 10759 10765 10771 10776 10781 10787 10792 10798 10803 10808 10814 10820 10824 10829 10832 10837 10841 10845 10848
10824 10822 10820 10818 10816 10813 10809 10805 10801 10798 10795 10792 10788 10785 10782 10778 10775 10771 10766 10762 10758 10754 10750 10746 10742 10738 10733 10729 10724 10719 10715 10710 10707 10702 10698 10694 10691 10688 10688 10687 10685 10683 10682 10680 10679 10679 10681 10681 10679 10675 10673 10675 10679 10683 10686 10691 10697 10701 10707 10715 10721 10724 10730 10737 10742 10746 10749 10755 10761 10767 10772 10777 10783 10790 10795 10801 10807 10813 10818 10822 10826 10830 10835 10839 10843
10818 10816 10815 10812 10809 10806 10802 10798 10794 10791 10788 10785 10781 10778 10774 10771 10768 10764 10759 10756 10752 10747 10743 10738 10734 10731 10726 10721 10715 10710 10705 10701 10697 10693 10689 10685 10681 10677 10675 10675 10675 10672 10671 10669 10668 10669 10672 10672 10669 10667 10666 10664 10666 10671 10674 10678 10684 10689 10695 10704 10710 10713 10720 10727 10732 10735 10739 10744 10751 10758 10763 10768 10774 10781 10787 10793 10799 10805 10810 10814 10819 10823 10828 10833 10837
10812 10811 10809 10806 10802 10799 10795 10791 10788 10785 10782 10779 10775 10771 10767 10764 10761 10756 10752 10749 10745 10740 10736 10730 10725 10721 10717 10712 10706 10700 10695 10691 10687 10682 10678 10674 10670 10666 10663 10663 10663 10662 10660 10658 10658 10659 10661 10660 10658 10658 10657 10655 10655 10658 10661 10665 10671 10677 10683 10691 10698 10702 10709 10717 10721 10724 10728 10734 10740 10748 10754 10759 10765 10772 10779 10786 10792 10798 10803 10808 10812 10817 10821 10826 10830
10806 10804 10802 10799 10795 10792 10788 10785 10782 10779 10776 10773 10769 10765 10761 10757 10753 10749 10745 10742 10738 10734 10729 10724 10718 10713 10707 10702 10696 10690 10684 10679 10675 10671 10666 10662 10658 10655 10651 10651 10651 10650 10648 10647 10647 10648 10649 10648 10647 10647 10648 10647 10646 10647 10649 10652 10658 10663 10668 10677 10686 10692 10698 10706 10710 10713 10718 10723 10729 10737 10745 10750 10757 10765 10772 10780 10785 10790 10797 10802 10806 10810 10814 10819 10823
10799 10798 10795 10792 10789 10785 10782 10779 10775 10773 10769 10766 10763 10759 10755 10751 10747 10743 10739 10735 10731 10727 10722 10718 10712 10705 10699 10693 10686 10679 10674 10668 10664 10659 10654 10650 10647 10643 10640 10638 10638 10638 10637 10636 10635 10636 10637 10636 10635 10636 10637 10637 10638 10638 10639 10640 10644 10650 10655 10663 10674 10681 10687 10694 10698 10701 10706 10713 10718 10727 10735 10742 10750 10758 10766 10773 10779 10784 10791 10796 10799 10803 10807 10812 10818
10793 10791 10788 10785 10782 10779 10776 10772 10768 10765 10762 10759 10756 10752 10749 10744 10740 10736 10732 10727 10722 10718 10714 10709 10704 10698 10691 10684 10677 10669 10663 10658 10654 10648 10643 10640 10636 10632 10629 10627 10626 10626 10626 10624 10623 10623 10625 10625 10624 10624 10626 10627 10627 10629 10630 10631 10632 10637 10643 10652 10661 10669 10675 10681 10686 10688 10695 10703 10710 10717 10725 10733 10742 10751 10758 10765 10772 10778 10784 10788 10792 10796 10801 10807 10813
10787 10784 10781 10778 10776 10773 10769 10765 10761 10757 10754 10750 10747 10744 10740 10736 10732 10728 10723 10718 10713 10709 10705 10701 10696 10690 10684 10677 10669 10661 10654 10649 10645 10639 10633 10628 10625 10621 10618 10615 10615 10615 10614 10613 10611 10611 10612 10614 10614 10612 10614 10616 10616 10617 10620 10623 10623 10624 10632 10643 10650 10656 10661 10668 10674 10677 10683 10695 10703 10706 10713 10724 10733 10743 10750 10757 10763 10770 10776 10780 10784 10790 10795 10801 10807
10779 10776 10773 10770 10769 10766 10762 10758 10754 10749 10746 10742 10739 10736 10732 10728 10725 10721 10716 10710 10704 10699 10695 10691 10687 10682 10676 10669 10661 10653 10646 10640 10636 10630 10624 10618 10614 10610 10607 10605 10603 10603 10602 10601 10600 10600 10600 10602 10602 10602 10603 10605 10604 10604 10608 10613 10614 10614 10622 10633 10638 10642 10647 10653 10661 10665 10671 10686 10695 10696 10702 10713 10724 10734 10741 10747 10754 10761 10767 10772 10777 10783 10789 10795 10801
10771 10768 10764 10762 10761 10758 10754 10750 10746 10741 10737 10733 10731 10728 10724 10720 10717 10713 10707 10702 10696 10690 10685 10681 10677 10673 10667 10660 10653 10645 10639 10633 10627 10622 10615 10609 10604 10600 10597 10594 10592 10591 10590 10589 10589 10589 10590 10591 10591 10590 10591 10592 10592 10592 10595 10600 10603 10604 10612 10620 10622 10628 10634 10639 10647 10652 10659 10674 10685 10687 10691 10700 10713 10726 10732 10736 10744 10753 10759 10764 10770 10776 10783 10789 10795
10765 10761 10757 10754 10753 10750 10745 10741 10738 10733 10728 10723 10722 10720 10716 10712 10707 10703 10697 10692 10687 10681 10676 10671 10667 10662 10657 10650 10644 10637 10631 10625 10619 10613 10607 10601 10595 10591 10587 10584 10581 10579 10578 10577 10578 10579 10580 10581 10580 10578 10578 10578 10580 10581 10583 10587 10591 10595 10601 10605 10607 10612 10620 10625 10633 10640 10646 10661 10676 10678 10678 10686 10703 10718 10721 10724 10734 10744 10750 10757 10763 10769 10777 10783 10789
10759 10756 10751 10747 10745 10741 10736 10732 10728 10723 10718 10714 10711 10710 10707 10703 10698 10693 10688 10683 10678 10673 10667 10662 10657 10652 10647 10641 10635 10629 10624 10618 10612 10605 10599 10593 10587 10583 10579 10575 10571 10569 10569 10568 10568 10569 10570 10570 10569 10568 10567 10567 10568 10570 10573 10576 10580 10585 10590 10593 10594 10598 10605 10613 10621 10628 10635 10651 10666 10668 10666 10674 10693 10707 10709 10714 10726 10735 10742 10750 10756 10762 10770 10777 10783
10753 10748 10744 10741 10737 10732 10728 10724 10719 10714 10710 10707 10704 10701 10698 10695 10690 10685 10680 10675 10670 10665 10660 10654 10649 10643 10638 10633 10627 10622 10617 10611 10604 10597 10590 10585 10580 10575 10571 10567 10562 10561 10561 10560 10559 10559 10559 10559 10558 10557 10557 10557 10558 10560 10563 10565 10569 10574 10579 10581 10582 10586 10592 10601 10609 10616 10626 10642 10654 10656 10655 10663 10681 10695 10699 10705 10718 10729 10736 10743 10749 10756 10764 10770 10777
10745 10740 10736 10734 10729 10724 10721 10715 10709 10706 10703 10700 10697 10694 10691 10688 10683 10678 10673 10669 10663 10658 10652 10646 10640 10635 10630 10625 10620 10615 10610 10604 10596 10588 10582 10576 10572 10568 10564 10559 10555 10553 10553 10553 10551 10550 10549 10549 10549 10548 10548 10549 10550 10552 10554 10555 10558 10563 10568 10571 10572 10574 10581 10589 10597 10606 10616 10630 10641 10646 10646 10652 10670 10685 10690 10698 10711 10721 10727 10735 10743 10750 10758 10764 10771